CW4427 Weather Reports


Display with metric or nautical units.
time (UTC)temp
F
wind
direction
speed
MPH
gust
MPH
rain 1hr
in
rain 24hr
in
rain mn
in
humidity
%
barometer
mb
20260903185908 101 343 2.0 6.0 0.00 0.00 0.00 50 1014.6
20260903184908 101 189 3.0 6.0 0.00 0.00 0.00 45 1014.8
20260903184408 100 209 1.0 9.0 0.00 0.00 0.00 47 1014.9
20260903183908 98 209 3.0 9.0 0.00 0.00 0.00 47 1014.9
20260903183407 99 294 3.0 6.0 0.00 0.00 0.00 47 1014.9
20260903182908 99 61 2.0 5.0 0.00 0.00 0.00 47 1015.0
20260903182408 99 178 1.0 4.0 0.00 0.00 0.00 51 1015.0
20260903181907 98 260 1.0 4.0 0.00 0.00 0.00 49 1015.1
20260903181407 97 30 1.0 3.0 0.00 0.00 0.00 48 1015.0
20260903180907 98 262 1.0 7.0 0.00 0.00 0.00 50 1015.3
20260903180407 98 218 0.0 7.0 0.00 0.00 0.00 49 1015.5
20260903175908 101 180 4.0 6.0 0.00 0.00 0.00 49 1015.5
20260903175407 100 248 1.0 8.0 0.00 0.00 0.00 50 1015.4
20260903174907 99 277 2.0 8.0 0.00 0.00 0.00 48 1015.5
20260903174407 97 205 6.0 9.0 0.00 0.00 0.00 48 1015.4
20260903173907 99 197 5.0 9.0 0.00 0.00 0.00 47 1015.6
20260903173408 99 242 5.0 6.0 0.00 0.00 0.00 49 1015.6
20260903172907 98 196 4.0 6.0 0.00 0.00 0.00 49 1015.5
20260903172407 98 94 2.0 6.0 0.00 0.00 0.00 48 1015.7
20260903171908 98 311 1.0 6.0 0.00 0.00 0.00 51 1015.9
20260903171407 99 318 2.0 6.0 0.00 0.00 0.00 49 1016.0
20260903170907 97 283 3.0 5.0 0.00 0.00 0.00 52 1016.0
20260903170407 98 281 2.0 7.0 0.00 0.00 0.00 51 1016.0
20260903165408 98 211 2.0 4.0 0.00 0.00 0.00 52 1016.0
20260903164907 98 180 2.0 6.0 0.00 0.00 0.00 51 1016.2
20260903164407 97 286 4.0 6.0 0.00 0.00 0.00 54 1016.2
20260903163407 96 184 3.0 4.0 0.00 0.00 0.00 51 1016.4
20260903162907 98 267 1.0 4.0 0.00 0.00 0.00 51 1016.4
20260903162407 97 290 1.0 4.0 0.00 0.00 0.00 52 1016.3
20260903161407 96 296 0.0 5.0 0.00 0.00 0.00 55 1016.5
20260903160908 96 278 1.0 5.0 0.00 0.00 0.00 52 1016.5
20260903160407 95 209 3.0 4.0 0.00 0.00 0.00 53 1016.5
20260903155907 96 292 0.0 5.0 0.00 0.00 0.00 57 1016.5
20260903155407 94 32 0.0 5.0 0.00 0.00 0.00 56 1016.3
20260903154407 95 224 1.0 3.0 0.00 0.00 0.00 57 1016.5
20260903153407 94 273 0.0 3.0 0.00 0.00 0.00 58 1016.4
20260903152907 94 277 0.0 3.0 0.00 0.00 0.00 57 1016.3
20260903152407 93 106 0.0 4.0 0.00 0.00 0.00 58 1016.3
20260903151407 93 118 2.0 4.0 0.00 0.00 0.00 59 1016.4
20260903150907 93 48 1.0 4.0 0.00 0.00 0.00 61 1016.4
20260903150407 93 83 0.0 2.0 0.00 0.00 0.00 61 1016.6
20260903145907 93 291 1.0 3.0 0.00 0.00 0.00 62 1016.7
20260903145407 92 279 0.0 3.0 0.00 0.00 0.00 64 1016.6
20260903144907 92 9 0.0 4.0 0.00 0.00 0.00 63 1016.6
20260903144407 91 249 1.0 4.0 0.00 0.00 0.00 65 1016.7
20260903143907 91 179 3.0 4.0 0.00 0.00 0.00 63 1016.8
20260903143407 91 169 0.0 3.0 0.00 0.00 0.00 63 1016.7
20260903142907 91 217 0.0 3.0 0.00 0.00 0.00 65 1016.7
20260903142407 91 285 2.0 3.0 0.00 0.00 0.00 67 1016.7
20260903141907 90 217 3.0 3.0 0.00 0.00 0.00 65 1016.6
20260903141407 90 246 0.0 0.0 0.00 0.00 0.00 67 1016.6
20260903140407 89 313 0.0 3.0 0.00 0.00 0.00 67 1016.6
20260903135407 87 209 2.0 4.0 0.00 0.00 0.00 69 1016.6
20260903134907 87 282 0.0 0.0 0.00 0.00 0.00 74 1016.7
20260903134407 86 148 0.0 0.0 0.00 0.00 0.00 76 1016.7
20260903133407 84 148 0.0 0.0 0.00 0.00 0.00 79 1016.7
20260903132907 83 148 0.0 0.0 0.00 0.00 0.00 81 1016.7
20260903132407 82 148 0.0 0.0 0.00 0.00 0.00 82 1016.7
20260903131407 80 148 0.0 0.0 0.00 0.00 0.00 84 1016.6
20260903130407 79 235 0.0 0.0 0.00 0.00 0.00 87 1016.6
20260903125906 78 235 0.0 0.0 0.00 0.00 0.00 87 1016.6
20260903125406 78 235 0.0 0.0 0.00 0.00 0.00 88 1016.6
20260903124907 77 235 0.0 0.0 0.00 0.00 0.00 89 1016.6
20260903124407 77 235 0.0 0.0 0.00 0.00 0.00 90 1016.6
20260903123906 76 235 0.0 0.0 0.00 0.00 0.00 90 1016.6
20260903122906 76 235 0.0 0.0 0.00 0.00 0.00 90 1016.5
20260903122407 75 235 0.0 0.0 0.00 0.00 0.00 90 1016.4
20260903121906 75 235 0.0 0.0 0.00 0.00 0.00 90 1016.2
20260903121406 75 235 0.0 0.0 0.00 0.00 0.00 90 1016.1
20260903120906 75 235 0.0 0.0 0.00 0.00 0.00 89 1016.0
20260903115906 75 235 0.0 0.0 0.00 0.00 0.00 89 1015.9
20260903115406 75 235 0.0 0.0 0.00 0.00 0.00 89 1016.0
20260903114406 75 235 0.0 0.0 0.00 0.00 0.00 89 1016.1
20260903113406 75 235 0.0 0.0 0.00 0.00 0.00 88 1015.9
20260903112906 75 235 0.0 0.0 0.00 0.00 0.00 88 1015.8
20260903112406 75 235 0.0 0.0 0.00 0.00 0.00 88 1015.9
20260903111906 75 235 0.0 0.0 0.00 0.00 0.00 88 1015.9
20260903111406 75 235 0.0 0.0 0.00 0.00 0.00 88 1015.8
20260903110406 75 235 0.0 0.0 0.00 0.00 0.00 87 1015.7
20260903105906 75 235 0.0 0.0 0.00 0.00 0.00 87 1015.8
20260903105406 75 235 0.0 0.0 0.00 0.00 0.00 87 1015.8
20260903104906 75 235 0.0 0.0 0.00 0.00 0.00 87 1015.8
20260903104406 75 235 0.0 0.0 0.00 0.00 0.00 87 1015.7
20260903103906 75 235 0.0 0.0 0.00 0.00 0.00 87 1015.8
20260903103406 75 235 0.0 0.0 0.00 0.00 0.00 86 1015.8
20260903102906 75 235 0.0 0.0 0.00 0.00 0.00 86 1015.8
20260903102406 76 235 0.0 0.0 0.00 0.00 0.00 86 1015.7
20260903101906 76 235 0.0 0.0 0.00 0.00 0.00 86 1015.7
20260903101406 76 235 0.0 0.0 0.00 0.00 0.00 85 1015.7
20260903100406 76 235 0.0 0.0 0.00 0.00 0.00 85 1015.6
20260903095906 76 235 0.0 0.0 0.00 0.00 0.00 84 1015.5
20260903095406 76 235 0.0 0.0 0.00 0.00 0.00 84 1015.4
20260903094906 77 235 0.0 0.0 0.00 0.00 0.00 84 1015.3
20260903094406 77 235 0.0 0.0 0.00 0.00 0.00 84 1015.3
20260903093406 77 235 0.0 0.0 0.00 0.00 0.00 83 1015.5
20260903092907 77 235 0.0 0.0 0.00 0.00 0.00 84 1015.5
20260903092406 77 235 0.0 0.0 0.00 0.00 0.00 83 1015.4
20260903091406 77 235 0.0 0.0 0.00 0.00 0.00 82 1015.4
20260903090906 77 235 0.0 0.0 0.00 0.00 0.00 82 1015.4
20260903090406 77 235 0.0 0.0 0.00 0.00 0.00 82 1015.4
20260903085906 78 235 0.0 0.0 0.00 0.00 0.00 81 1015.5
20260903085406 78 235 0.0 0.0 0.00 0.00 0.00 80 1015.5
20260903084906 78 235 0.0 0.0 0.00 0.00 0.00 80 1015.5
20260903084406 78 235 0.0 0.0 0.00 0.00 0.00 80 1015.5
20260903083906 78 235 0.0 0.0 0.00 0.00 0.00 79 1015.4
20260903083406 78 235 0.0 0.0 0.00 0.00 0.00 79 1015.4
20260903082906 78 235 0.0 0.0 0.00 0.00 0.00 79 1015.2
20260903082406 78 235 0.0 0.0 0.00 0.00 0.00 78 1015.2
20260903081906 78 235 0.0 0.0 0.00 0.00 0.00 78 1015.2
20260903081405 79 235 0.0 0.0 0.00 0.00 0.00 78 1015.1
20260903080406 79 235 0.0 0.0 0.00 0.00 0.00 77 1015.1
20260903075905 79 235 0.0 0.0 0.00 0.00 0.00 78 1015.2
20260903075405 79 235 0.0 0.0 0.00 0.00 0.00 78 1015.2
20260903074906 79 235 0.0 0.0 0.00 0.00 0.00 78 1015.2
20260903074406 79 235 0.0 0.0 0.00 0.00 0.00 78 1015.1
20260903073906 79 235 0.0 0.0 0.00 0.00 0.00 78 1015.1
20260903072905 79 235 0.0 0.0 0.00 0.00 0.00 77 1015.1
20260903071905 79 235 0.0 0.0 0.00 0.00 0.00 76 1015.3
20260903071406 80 235 0.0 0.0 0.00 0.00 0.00 76 1015.3
20260903070906 80 235 0.0 0.0 0.00 0.00 0.00 76 1015.4
20260903070406 80 235 0.0 0.0 0.00 0.00 0.00 75 1015.5
20260903065905 80 235 0.0 0.0 0.00 0.00 0.00 75 1015.4
20260903065406 80 235 0.0 0.0 0.00 0.00 0.00 75 1015.4
20260903063406 80 235 0.0 0.0 0.00 0.00 0.00 75 1015.4
20260903062905 80 235 0.0 0.0 0.00 0.00 0.00 75 1015.4
20260903062405 80 235 0.0 0.0 0.00 0.00 0.00 75 1015.5
20260903061905 80 235 0.0 0.0 0.00 0.00 0.00 75 1015.4
20260903061405 80 235 0.0 0.0 0.00 0.00 0.00 76 1015.6
20260903060905 80 235 0.0 0.0 0.00 0.00 0.00 76 1015.6
20260903060405 79 121 0.0 0.0 0.00 0.00 0.00 78 1015.6
20260903055905 79 121 0.0 0.0 0.00 0.00 0.00 79 1015.6
20260903055405 79 121 0.0 0.0 0.00 0.00 0.00 80 1015.5
20260903054905 79 121 0.0 0.0 0.00 0.00 0.00 80 1015.4
20260903054405 79 107 0.0 0.0 0.00 0.00 0.00 80 1015.5
20260903053905 79 107 0.0 0.0 0.00 0.00 0.00 80 1015.4
20260903053405 79 107 0.0 0.0 0.00 0.00 0.00 80 1015.4
20260903052905 79 107 0.0 0.0 0.00 0.00 0.00 79 1015.2
20260903052405 79 107 0.0 0.0 0.00 0.00 0.00 79 1015.3
20260903051905 80 107 0.0 0.0 0.00 0.00 0.00 79 1015.3
20260903051405 80 107 0.0 0.0 0.00 0.00 0.00 79 1015.3
20260903050905 79 107 0.0 0.0 0.00 0.00 0.00 80 1015.2
20260903050405 79 107 0.0 0.0 0.00 0.00 0.00 80 1015.2
20260903045905 79 107 0.0 0.0 0.00 0.00 0.00 80 1015.1
20260903045405 80 107 0.0 0.0 0.00 0.00 0.00 79 1015.2
20260903044905 80 107 0.0 0.0 0.00 0.00 0.00 79 1015.2
20260903044405 80 107 0.0 0.0 0.00 0.00 0.00 78 1015.3
20260903043905 80 107 0.0 0.0 0.00 0.00 0.00 78 1015.3
20260903042905 80 107 0.0 0.0 0.00 0.00 0.00 78 1015.2
20260903042405 80 107 0.0 0.0 0.00 0.00 0.00 78 1015.2
20260903041405 81 107 0.0 0.0 0.00 0.00 0.00 78 1015.1
20260903040405 81 107 0.0 0.0 0.00 0.00 0.00 76 1015.1
20260903035405 81 107 0.0 0.0 0.00 0.00 0.00 75 1015.1
20260903034905 81 107 0.0 0.0 0.00 0.00 0.00 74 1015.1
20260903034405 82 107 0.0 0.0 0.00 0.00 0.00 73 1015.1
20260903033905 82 107 0.0 0.0 0.00 0.00 0.00 73 1015.2
20260903033405 82 107 0.0 0.0 0.00 0.00 0.00 73 1015.1
20260903032405 82 107 0.0 0.0 0.00 0.00 0.00 74 1015.2
20260903031905 82 107 0.0 0.0 0.00 0.00 0.00 74 1015.2
20260903031405 82 107 0.0 0.0 0.00 0.00 0.00 72 1015.2
20260903030905 83 107 0.0 0.0 0.00 0.00 0.00 72 1015.5
20260903030404 82 107 0.0 0.0 0.00 0.00 0.00 73 1015.3
20260903025905 83 107 0.0 0.0 0.00 0.00 0.00 72 1015.5
20260903025405 83 107 0.0 0.0 0.00 0.00 0.00 72 1015.4
20260903024405 83 107 0.0 0.0 0.00 0.00 0.00 72 1015.3
20260903023904 83 107 0.0 0.0 0.00 0.00 0.00 73 1015.3
20260903023405 83 107 0.0 0.0 0.00 0.00 0.00 72 1015.1
20260903022905 84 107 0.0 0.0 0.00 0.00 0.00 71 1015.1
20260903022405 84 107 0.0 0.0 0.00 0.00 0.00 70 1015.2
20260903021904 84 107 0.0 0.0 0.00 0.00 0.00 70 1015.0
20260903021405 84 107 0.0 0.0 0.00 0.00 0.00 69 1014.9
20260903020904 84 107 0.0 0.0 0.00 0.00 0.00 69 1015.0
20260903020405 84 107 0.0 0.0 0.00 0.00 0.00 69 1015.0
20260903015905 85 107 0.0 0.0 0.00 0.00 0.00 68 1014.9
20260903015405 85 107 0.0 0.0 0.00 0.00 0.00 68 1014.7
20260903014905 85 107 0.0 0.0 0.00 0.00 0.00 68 1014.6
20260903013905 85 107 0.0 0.0 0.00 0.00 0.00 68 1014.6
20260903013405 85 107 0.0 0.0 0.00 0.00 0.00 66 1014.5
20260903012905 85 107 0.0 0.0 0.00 0.00 0.00 67 1014.6
20260903012405 86 107 0.0 0.0 0.00 0.00 0.00 67 1014.6
20260903011905 86 107 0.0 0.0 0.00 0.00 0.00 67 1014.5
20260903010905 86 107 0.0 0.0 0.00 0.00 0.00 66 1014.5
20260903010404 86 107 0.0 0.0 0.00 0.00 0.00 65 1014.3
20260903005904 87 107 0.0 0.0 0.00 0.00 0.00 65 1014.3
20260903005405 87 107 0.0 0.0 0.00 0.00 0.00 63 1014.2
20260903004904 87 107 0.0 0.0 0.00 0.00 0.00 63 1014.1
20260903004404 88 107 0.0 0.0 0.00 0.00 0.00 62 1014.1
20260903003904 88 107 0.0 0.0 0.00 0.00 0.00 62 1014.2
20260903002905 89 107 0.0 0.0 0.00 0.00 0.00 61 1014.2
20260903002405 89 107 0.0 0.0 0.00 0.00 0.00 60 1014.1
20260903001905 90 107 0.0 0.0 0.00 0.00 0.00 59 1014.2
20260903001405 90 107 0.0 0.0 0.00 0.00 0.00 57 1014.3
20260903000405 92 107 0.0 2.0 0.00 0.00 0.00 55 1014.2
20260902235904 93 107 0.0 3.0 0.00 0.00 0.00 54 1014.2
20260902235405 94 130 0.0 3.0 0.00 0.00 0.00 52 1014.2
20260902234404 95 96 1.0 4.0 0.00 0.00 0.00 50 1014.2
20260902233904 95 72 2.0 4.0 0.00 0.00 0.00 50 1014.4
20260902233404 95 33 3.0 4.0 0.00 0.00 0.00 49 1014.3
20260902232905 95 30 0.0 5.0 0.00 0.00 0.00 50 1014.3
20260902232404 96 90 1.0 5.0 0.00 0.00 0.00 47 1014.2
20260902231904 96 43 1.0 3.0 0.00 0.00 0.00 49 1014.2
20260902231404 97 98 1.0 3.0 0.00 0.00 0.00 48 1014.2
20260902230904 97 55 0.0 0.0 0.00 0.00 0.00 45 1014.3
20260902230404 97 86 0.0 2.0 0.00 0.00 0.00 46 1014.3
20260902225904 97 16 0.0 2.0 0.00 0.00 0.00 46 1014.3
20260902224904 96 48 0.0 0.0 0.00 0.00 0.00 45 1014.4
20260902224404 97 49 0.0 3.0 0.00 0.00 0.00 47 1014.6
20260902223404 97 113 2.0 3.0 0.00 0.00 0.00 47 1014.4
20260902221904 95 59 0.0 0.0 0.00 0.00 0.00 53 1014.5
20260902221404 95 98 0.0 0.0 0.00 0.00 0.00 53 1014.5
20260902220904 94 98 0.0 0.0 0.00 0.00 0.00 56 1014.4
20260902220404 94 98 0.0 0.0 0.00 0.00 0.00 56 1014.5
20260902215904 94 98 0.0 0.0 0.00 0.00 0.00 56 1014.5
20260902215404 93 98 0.0 2.0 0.00 0.00 0.00 53 1014.6
20260902214904 94 98 0.0 2.0 0.00 0.00 0.00 51 1014.5
20260902214404 95 355 0.0 2.0 0.00 0.00 0.00 53 1014.6
20260902213903 95 89 0.0 3.0 0.00 0.00 0.00 55 1014.6
20260902213404 95 355 1.0 3.0 0.00 0.00 0.00 50 1014.8
20260902212903 94 101 1.0 3.0 0.00 0.00 0.00 51 1014.8
20260902211903 95 62 2.0 3.0 0.00 0.00 0.00 53 1014.9
20260902211404 96 49 0.0 3.0 0.00 0.00 0.00 51 1014.8
20260902210404 96 107 2.0 3.0 0.00 0.00 0.00 47 1014.8
20260902205403 97 96 1.0 7.0 0.00 0.00 0.00 45 1014.8
20260902204904 98 5 2.0 5.0 0.00 0.00 0.00 43 1014.9
20260902203903 98 36 3.0 7.0 0.00 0.00 0.00 44 1015.1
20260902203404 98 23 4.0 6.0 0.00 0.00 0.00 45 1015.1
20260902202903 98 30 4.0 5.0 0.00 0.00 0.00 44 1015.2
20260902202403 98 41 2.0 4.0 0.00 0.00 0.00 42 1015.1
20260902201904 97 69 1.0 4.0 0.00 0.00 0.00 43 1015.2
20260902201404 97 86 1.0 5.0 0.00 0.00 0.00 43 1015.3
20260902200904 99 108 4.0 5.0 0.00 0.00 0.00 42 1015.4
20260902200403 99 76 0.0 5.0 0.00 0.00 0.00 43 1015.5
20260902195904 102 85 3.0 5.0 0.00 0.00 0.00 43 1015.6
20260902195403 103 234 0.0 5.0 0.00 0.00 0.00 39 1015.6
20260902194903 102 275 3.0 6.0 0.00 0.00 0.00 42 1015.7
20260902194403 102 197 0.0 6.0 0.00 0.00 0.00 40 1015.8
20260902193904 101 286 2.0 6.0 0.00 0.00 0.00 44 1015.9
20260902193403 101 337 2.0 8.0 0.00 0.00 0.00 42 1016.0
20260902192903 101 144 1.0 8.0 0.00 0.00 0.00 40 1016.0
20260902192403 100 103 7.0 9.0 0.00 0.00 0.00 43 1016.0
20260902190903 101 211 1.0 8.0 0.00 0.00 0.00 42 1016.1
20260902190403 100 281 1.0 8.0 0.00 0.00 0.00 45 1016.1